Time,TemperatureF,DewpointF,PressureIn,WindDirection,WindDirectionDegrees,WindSpeedMPH,WindSpeedGustMPH,Humidity,HourlyPrecipIn,Conditions,Clouds,dailyrainin,SoftwareType,DateUTC
2013-05-16 00:02:00,62.0,61.0,29.79,East,94,1.0,6.0,95,1.41,,,1.71,,2013-05-16 05:02:00,
2013-05-16 00:12:00,62.0,61.0,29.78,ENE,61,0.0,7.0,95,0.98,,,1.72,,2013-05-16 05:12:00,
2013-05-16 00:22:00,62.0,61.0,29.78,ENE,61,0.0,7.0,95,0.98,,,1.72,,2013-05-16 05:22:00,
2013-05-16 00:32:00,62.0,61.0,29.79,East,96,0.0,4.0,95,0.20,,,1.72,,2013-05-16 05:32:00,
2013-05-16 00:42:00,62.0,61.0,29.79,East,96,0.0,4.0,95,0.20,,,1.72,,2013-05-16 05:42:00,
2013-05-16 00:52:00,62.0,61.0,29.82,SSW,207,1.0,7.0,95,0.02,,,1.72,,2013-05-16 05:52:00,
2013-05-16 01:01:00,62.0,61.0,29.82,ENE,60,1.0,9.0,95,0.01,,,1.72,,2013-05-16 06:01:00,
2013-05-16 01:12:00,62.0,61.0,29.81,NE,42,2.0,8.0,95,0.00,,,1.72,,2013-05-16 06:12:00,
2013-05-16 01:22:00,62.0,61.0,29.81,NE,42,2.0,8.0,95,0.00,,,1.72,,2013-05-16 06:22:00,
2013-05-16 01:33:00,62.0,60.0,29.82,East,79,0.0,6.0,94,0.00,,,1.72,,2013-05-16 06:33:00,
2013-05-16 01:43:00,62.0,60.0,29.82,East,79,0.0,6.0,94,0.00,,,1.72,,2013-05-16 06:43:00,
2013-05-16 01:53:00,62.0,60.0,29.82,ENE,63,1.0,6.0,94,0.00,,,1.72,,2013-05-16 06:53:00,
2013-05-16 02:02:00,62.0,60.0,29.79,ENE,61,4.0,9.0,94,0.00,,,1.72,,2013-05-16 07:02:00,
2013-05-16 02:12:00,62.0,60.0,29.79,ENE,61,4.0,9.0,94,0.00,,,1.72,,2013-05-16 07:12:00,
2013-05-16 02:24:00,62.0,60.0,29.78,NE,51,1.0,10.0,94,0.00,,,1.72,,2013-05-16 07:24:00,
2013-05-16 02:34:00,62.0,60.0,29.78,NE,56,1.0,5.0,94,0.00,,,1.72,,2013-05-16 07:34:00,
2013-05-16 02:44:00,62.0,60.0,29.78,NE,56,1.0,5.0,94,0.00,,,1.72,,2013-05-16 07:44:00,
2013-05-16 02:54:00,62.0,60.0,29.78,WSW,242,1.0,10.0,94,0.00,,,1.72,,2013-05-16 07:54:00,
2013-05-16 03:03:00,62.0,60.0,29.79,SE,124,0.0,4.0,94,0.00,,,1.72,,2013-05-16 08:03:00,
2013-05-16 03:13:00,62.0,61.0,29.79,East,99,1.0,6.0,95,0.00,,,1.72,,2013-05-16 08:13:00,
2013-05-16 03:23:00,62.0,61.0,29.79,East,99,1.0,6.0,95,0.00,,,1.72,,2013-05-16 08:23:00,
2013-05-16 03:34:00,62.0,61.0,29.80,NW,307,0.0,5.0,95,0.00,,,1.72,,2013-05-16 08:34:00,
2013-05-16 03:44:00,62.0,61.0,29.79,West,277,0.0,11.0,95,0.00,,,1.72,,2013-05-16 08:44:00,
2013-05-16 03:55:00,62.0,61.0,29.79,West,277,0.0,11.0,95,0.00,,,1.72,,2013-05-16 08:55:00,
2013-05-16 04:04:00,62.0,61.0,29.79,NNE,22,1.0,6.0,95,0.00,,,1.72,,2013-05-16 09:04:00,
2013-05-16 04:14:00,62.0,61.0,29.77,WSW,258,0.0,7.0,95,0.00,,,1.72,,2013-05-16 09:14:00,
2013-05-16 04:24:00,62.0,61.0,29.77,WSW,258,0.0,7.0,95,0.00,,,1.72,,2013-05-16 09:24:00,
2013-05-16 04:35:00,62.0,61.0,29.77,NE,53,0.0,4.0,95,0.00,,,1.72,,2013-05-16 09:35:00,
2013-05-16 04:45:00,61.0,60.0,29.78,West,270,0.0,2.0,95,0.00,,,1.72,,2013-05-16 09:45:00,
2013-05-16 04:55:00,61.0,60.0,29.78,West,270,0.0,2.0,95,0.00,,,1.72,,2013-05-16 09:55:00,
2013-05-16 05:05:00,61.0,60.0,29.79,SSW,208,0.0,2.0,95,0.00,,,1.72,,2013-05-16 10:05:00,
2013-05-16 05:15:00,62.0,61.0,29.80,ESE,120,0.0,3.0,95,0.00,,,1.72,,2013-05-16 10:15:00,
2013-05-16 05:24:00,62.0,61.0,29.80,ESE,120,0.0,3.0,95,0.00,,,1.72,,2013-05-16 10:24:00,
2013-05-16 05:35:00,62.0,61.0,29.81,SSW,197,0.0,4.0,95,0.00,,,1.72,,2013-05-16 10:35:00,
2013-05-16 05:45:00,62.0,61.0,29.81,SSW,197,0.0,4.0,95,0.00,,,1.72,,2013-05-16 10:45:00,
2013-05-16 05:56:00,62.0,61.0,29.80,SSE,160,0.0,4.0,95,0.00,,,1.72,,2013-05-16 10:56:00,
2013-05-16 06:05:00,62.0,61.0,29.80,SE,132,0.0,2.0,95,0.00,,,1.72,,2013-05-16 11:05:00,
2013-05-16 06:14:00,62.0,61.0,29.80,SE,132,0.0,2.0,95,0.00,,,1.72,,2013-05-16 11:14:00,
2013-05-16 06:25:00,62.0,61.0,29.81,SSE,165,0.0,3.0,95,0.00,,,1.72,,2013-05-16 11:25:00,
2013-05-16 06:35:00,62.0,61.0,29.80,ESE,116,0.0,8.0,95,0.00,,,1.72,,2013-05-16 11:35:00,
2013-05-16 06:46:00,62.0,61.0,29.80,ESE,116,0.0,8.0,95,0.00,,,1.72,,2013-05-16 11:46:00,
2013-05-16 06:57:00,62.0,61.0,29.80,ESE,103,0.0,3.0,95,0.00,,,1.72,,2013-05-16 11:57:00,
2013-05-16 07:06:00,62.0,61.0,29.79,SSW,210,0.0,2.0,95,0.00,,,1.72,,2013-05-16 12:06:00,
2013-05-16 07:13:00,62.0,61.0,29.79,SSW,210,0.0,2.0,95,0.00,,,1.72,,2013-05-16 12:13:00,
2013-05-16 07:23:00,62.0,61.0,29.80,SSE,153,0.0,5.0,95,0.00,,,1.72,,2013-05-16 12:23:00,
2013-05-16 07:34:00,63.0,61.0,29.81,SW,226,2.0,8.0,94,0.01,,,1.73,,2013-05-16 12:34:00,
2013-05-16 07:45:00,63.0,61.0,29.81,SW,226,2.0,8.0,94,0.01,,,1.73,,2013-05-16 12:45:00,
2013-05-16 07:53:00,63.0,61.0,29.81,SE,138,1.0,9.0,93,0.01,,,1.73,,2013-05-16 12:53:00,
2013-05-16 08:04:00,64.0,61.0,29.82,South,169,3.0,9.0,91,0.01,,,1.73,,2013-05-16 13:04:00,
2013-05-16 08:12:00,65.0,62.0,29.81,NE,43,1.0,11.0,90,0.01,,,1.73,,2013-05-16 13:12:00,
2013-05-16 08:26:00,65.0,62.0,29.81,NE,43,1.0,11.0,90,0.01,,,1.73,,2013-05-16 13:26:00,
2013-05-16 08:35:00,65.0,62.0,29.81,SW,232,0.0,5.0,90,0.00,,,1.73,,2013-05-16 13:35:00,
2013-05-16 08:43:00,65.0,62.0,29.81,SW,232,0.0,5.0,90,0.00,,,1.73,,2013-05-16 13:43:00,
2013-05-16 08:55:00,65.0,62.0,29.81,ESE,120,2.0,8.0,89,0.00,,,1.73,,2013-05-16 13:55:00,
2013-05-16 09:05:00,66.0,63.0,29.81,SE,131,0.0,6.0,89,0.00,,,1.73,,2013-05-16 14:05:00,
2013-05-16 09:16:00,66.0,63.0,29.82,SSE,163,1.0,6.0,89,0.00,,,1.73,,2013-05-16 14:16:00,
2013-05-16 09:23:00,66.0,63.0,29.82,SSE,163,1.0,6.0,89,0.00,,,1.73,,2013-05-16 14:23:00,
2013-05-16 09:37:00,66.0,63.0,29.82,South,183,0.0,3.0,89,0.00,,,1.72,,2013-05-16 14:37:00,
2013-05-16 09:47:00,66.0,63.0,29.82,South,183,0.0,3.0,89,0.00,,,1.72,,2013-05-16 14:47:00,
2013-05-16 09:56:00,66.0,63.0,29.82,SSW,207,0.0,7.0,90,0.00,,,1.72,,2013-05-16 14:56:00,
2013-05-16 10:08:00,66.0,63.0,29.82,SE,134,1.0,5.0,90,0.00,,,1.72,,2013-05-16 15:08:00,
2013-05-16 10:17:00,67.0,64.0,29.83,SSW,208,0.0,8.0,90,0.00,,,1.72,,2013-05-16 15:17:00,
2013-05-16 10:28:00,67.0,64.0,29.83,SSW,208,0.0,8.0,90,0.00,,,1.72,,2013-05-16 15:28:00,
2013-05-16 10:40:00,67.0,64.0,29.83,SW,230,0.0,7.0,90,0.00,,,1.72,,2013-05-16 15:40:00,
2013-05-16 10:50:00,67.0,64.0,29.83,East,91,0.0,2.0,90,0.00,,,1.72,,2013-05-16 15:50:00,
2013-05-16 11:00:00,67.0,64.0,29.83,East,91,0.0,2.0,90,0.00,,,1.72,,2013-05-16 16:00:00,
2013-05-16 11:09:00,67.0,64.0,29.83,NNE,31,0.0,3.0,90,0.00,,,1.72,,2013-05-16 16:09:00,
2013-05-16 11:19:00,67.0,64.0,29.83,NNE,31,0.0,3.0,90,0.00,,,1.72,,2013-05-16 16:19:00,
2013-05-16 11:30:00,67.0,64.0,29.84,ENE,75,0.0,2.0,90,0.00,,,1.72,,2013-05-16 16:30:00,
2013-05-16 11:40:00,67.0,-99.9,29.84,SSE,163,0.0,1.0,90,0.00,,,1.72,,2013-05-16 16:40:00,
2013-05-16 11:50:00,67.0,64.0,29.84,SSE,163,0.0,1.0,90,0.00,,,1.72,,2013-05-16 16:50:00,
2013-05-16 12:00:00,68.0,65.0,29.84,ENE,70,0.0,2.0,90,0.00,,,1.72,,2013-05-16 17:00:00,
2013-05-16 12:10:00,68.0,65.0,29.84,NNW,331,0.0,2.0,90,0.00,,,1.72,,2013-05-16 17:10:00,
2013-05-16 12:20:00,68.0,65.0,29.84,NNW,331,0.0,2.0,90,0.00,,,1.72,,2013-05-16 17:20:00,
2013-05-16 12:30:00,68.0,65.0,29.84,SSW,197,0.0,2.0,90,0.00,,,1.72,,2013-05-16 17:30:00,
2013-05-16 12:40:00,69.0,66.0,29.83,South,170,1.0,7.0,89,0.00,,,1.72,,2013-05-16 17:40:00,
2013-05-16 12:50:00,72.0,-99.9,29.82,NE,34,1.0,8.0,86,0.00,,,1.72,,2013-05-16 17:50:00,
2013-05-16 13:00:00,-999.0,-99.9,29.82,NE,34,1.0,8.0,86,0.00,,,1.72,,2013-05-16 18:00:00,
2013-05-16 13:10:00,74.0,68.0,29.81,South,187,2.0,10.0,82,0.00,,,1.72,,2013-05-16 18:10:00,
2013-05-16 13:20:00,76.0,69.0,29.81,SE,134,1.0,10.0,80,0.00,,,1.72,,2013-05-16 18:20:00,
2013-05-16 13:30:00,-999.0,-99.9,29.81,SE,134,1.0,10.0,80,0.00,,,1.72,,2013-05-16 18:30:00,
2013-05-16 13:40:00,-999.0,-99.9,29.80,NNW,327,2.0,16.0,77,0.00,,,1.72,,2013-05-16 18:40:00,
2013-05-16 13:50:00,-999.0,-99.9,29.80,NNW,327,2.0,16.0,77,0.00,,,1.72,,2013-05-16 18:50:00,
2013-05-16 14:00:00,-999.0,-99.9,29.80,East,90,3.0,12.0,76,0.00,,,1.72,,2013-05-16 19:00:00,
2013-05-16 14:10:00,78.0,69.0,29.80,NE,49,5.0,12.0,75,0.00,,,1.72,,2013-05-16 19:10:00,
2013-05-16 14:20:00,78.0,69.0,29.80,NE,49,5.0,12.0,75,0.00,,,1.72,,2013-05-16 19:20:00,
2013-05-16 14:30:00,78.0,70.0,29.80,SW,218,4.0,15.0,77,0.00,,,1.72,,2013-05-16 19:30:00,
2013-05-16 14:40:00,78.0,-99.9,29.79,SSE,158,4.0,11.0,74,0.00,,,1.72,,2013-05-16 19:40:00,
2013-05-16 14:50:00,-999.0,-99.9,29.79,SSE,158,4.0,11.0,74,0.00,,,1.72,,2013-05-16 19:50:00,
2013-05-16 15:00:00,-999.0,-99.9,29.79,SSE,155,0.0,9.0,75,0.00,,,1.72,,2013-05-16 20:00:00,
2013-05-16 15:10:00,-999.0,-99.9,29.79,WSW,248,3.0,10.0,74,0.00,,,1.72,,2013-05-16 20:10:00,
2013-05-16 15:20:00,80.0,-99.9,29.79,SSW,195,2.0,10.0,72,0.00,,,1.71,,2013-05-16 20:20:00,
2013-05-16 15:30:00,80.0,70.0,29.79,SSW,195,2.0,10.0,72,0.00,,,1.71,,2013-05-16 20:30:00,
2013-05-16 15:40:00,-999.0,-99.9,29.79,ESE,122,3.0,7.0,73,0.00,,,1.71,,2013-05-16 20:40:00,
2013-05-16 15:50:00,81.0,72.0,29.78,SE,134,1.0,7.0,73,0.00,,,1.71,,2013-05-16 20:50:00,
2013-05-16 16:00:00,81.0,-99.9,29.78,SE,134,1.0,7.0,73,0.00,,,1.71,,2013-05-16 21:00:00,
2013-05-16 16:10:00,81.0,-99.9,29.78,ESE,107,1.0,8.0,72,0.00,,,1.71,,2013-05-16 21:10:00,
2013-05-16 16:20:00,81.0,-99.9,29.78,ESE,107,1.0,8.0,72,0.00,,,1.71,,2013-05-16 21:20:00,
2013-05-16 16:29:00,80.0,71.0,29.78,WSW,250,1.0,9.0,73,0.00,,,1.71,,2013-05-16 21:29:00,
2013-05-16 16:38:00,79.0,70.0,29.77,East,86,0.0,2.0,75,0.00,,,1.71,,2013-05-16 21:38:00,
2013-05-16 16:50:00,79.0,-99.9,29.77,East,86,0.0,2.0,75,0.00,,,1.71,,2013-05-16 21:50:00,
2013-05-16 17:00:00,-999.0,-99.9,29.77,SSW,202,0.0,4.0,76,0.00,,,1.71,,2013-05-16 22:00:00,
2013-05-16 17:08:00,79.0,71.0,29.77,West,272,1.0,6.0,76,0.00,,,1.71,,2013-05-16 22:08:00,
2013-05-16 17:20:00,79.0,71.0,29.77,West,272,1.0,6.0,76,0.00,,,1.71,,2013-05-16 22:20:00,
2013-05-16 17:30:00,81.0,72.0,29.76,WSW,248,1.0,5.0,74,0.00,,,1.68,,2013-05-16 22:30:00,
2013-05-16 17:40:00,81.0,72.0,29.76,SE,137,1.0,4.0,73,0.00,,,1.68,,2013-05-16 22:40:00,
2013-05-16 17:50:00,81.0,72.0,29.76,SE,137,1.0,4.0,73,0.00,,,1.68,,2013-05-16 22:50:00,
2013-05-16 18:01:00,81.0,71.0,29.75,ENE,68,0.0,5.0,72,0.00,,,1.68,,2013-05-16 23:01:00,
2013-05-16 18:06:00,81.0,72.0,29.75,East,87,1.0,7.0,73,0.00,,,1.68,,2013-05-16 23:06:00,
2013-05-16 18:16:00,81.0,71.0,29.75,South,170,0.0,7.0,72,0.00,,,1.67,,2013-05-16 23:16:00,
2013-05-16 18:24:00,81.0,71.0,29.75,South,170,0.0,7.0,72,0.00,,,1.67,,2013-05-16 23:24:00,
2013-05-16 18:35:00,81.0,72.0,29.75,SE,127,0.0,5.0,73,0.00,,,1.67,,2013-05-16 23:35:00,
2013-05-16 18:45:00,81.0,72.0,29.75,SE,127,0.0,5.0,73,0.00,,,1.67,,2013-05-16 23:45:00,
2013-05-16 18:54:00,80.0,71.0,29.75,SSE,162,0.0,4.0,74,0.00,,,1.67,,2013-05-16 23:54:00,
2013-05-16 19:02:00,80.0,71.0,29.75,SE,146,0.0,4.0,74,0.00,,,1.67,,2013-05-17 00:02:00,
2013-05-16 19:13:00,80.0,71.0,29.75,SE,146,0.0,4.0,74,0.00,,,1.67,,2013-05-17 00:13:00,
2013-05-16 19:22:00,79.0,70.0,29.75,NE,37,0.0,4.0,75,0.00,,,1.67,,2013-05-17 00:22:00,
2013-05-16 19:33:00,79.0,71.0,29.75,ENE,63,1.0,5.0,77,0.00,,,1.67,,2013-05-17 00:33:00,
2013-05-16 19:43:00,79.0,71.0,29.75,ENE,63,1.0,5.0,77,0.00,,,1.67,,2013-05-17 00:43:00,
2013-05-16 19:53:00,78.0,70.0,29.75,ESE,107,0.0,2.0,77,0.00,,,1.67,,2013-05-17 00:53:00,
2013-05-16 20:03:00,78.0,70.0,29.75,South,177,0.0,3.0,77,0.00,,,1.67,,2013-05-17 01:03:00,
2013-05-16 20:12:00,78.0,70.0,29.75,South,177,0.0,3.0,77,0.00,,,1.67,,2013-05-17 01:12:00,
2013-05-16 20:23:00,78.0,71.0,29.75,ENE,77,0.0,4.0,78,0.00,,,1.67,,2013-05-17 01:23:00,
2013-05-16 20:32:00,77.0,70.0,29.76,ESE,114,0.0,3.0,79,0.00,,,1.67,,2013-05-17 01:32:00,
2013-05-16 20:43:00,77.0,70.0,29.76,East,94,0.0,1.0,80,0.00,,,1.67,,2013-05-17 01:43:00,
2013-05-16 20:52:00,77.0,70.0,29.76,East,94,0.0,1.0,80,0.00,,,1.67,,2013-05-17 01:52:00,
2013-05-16 21:02:00,76.0,70.0,29.76,SSW,211,0.0,1.0,81,0.00,,,1.67,,2013-05-17 02:02:00,
2013-05-16 21:11:00,76.0,70.0,29.76,SSW,211,0.0,1.0,81,0.00,,,1.67,,2013-05-17 02:11:00,
2013-05-16 21:21:00,75.0,69.0,29.77,NE,34,0.0,1.0,83,0.00,,,1.63,,2013-05-17 02:21:00,
2013-05-16 21:32:00,75.0,70.0,29.78,NE,53,0.0,2.0,84,0.00,,,1.63,,2013-05-17 02:32:00,
2013-05-16 21:42:00,75.0,70.0,29.78,NE,53,0.0,2.0,84,0.00,,,1.63,,2013-05-17 02:42:00,
2013-05-16 21:53:00,74.0,69.0,29.78,NE,54,0.0,1.0,85,0.00,,,1.63,,2013-05-17 02:53:00,
2013-05-16 22:01:00,74.0,70.0,29.78,NE,54,0.0,0.0,86,0.00,,,1.63,,2013-05-17 03:01:00,
2013-05-16 22:11:00,73.0,69.0,29.79,NE,54,0.0,0.0,87,0.00,,,1.54,,2013-05-17 03:11:00,
2013-05-16 22:22:00,73.0,69.0,29.79,NE,54,0.0,0.0,87,0.00,,,1.54,,2013-05-17 03:22:00,
2013-05-16 22:34:00,74.0,70.0,29.80,North,353,0.0,1.0,88,0.00,,,1.54,,2013-05-17 03:34:00,
2013-05-16 22:43:00,74.0,70.0,29.80,North,353,0.0,1.0,88,0.00,,,1.54,,2013-05-17 03:43:00,
2013-05-16 22:53:00,74.0,70.0,29.80,North,353,0.0,1.0,88,0.00,,,1.54,,2013-05-17 03:53:00,
2013-05-16 23:02:00,74.0,70.0,29.80,North,353,0.0,1.0,88,0.00,,,1.54,,2013-05-17 04:02:00,
2013-05-16 23:13:00,74.0,70.0,29.80,SW,233,0.0,1.0,88,0.00,,,0.92,,2013-05-17 04:13:00,
2013-05-16 23:23:00,74.0,70.0,29.80,SW,233,0.0,1.0,88,0.00,,,0.92,,2013-05-17 04:23:00,
2013-05-16 23:34:00,73.0,69.0,29.80,ENE,63,0.0,1.0,88,0.00,,,0.92,,2013-05-17 04:34:00,
2013-05-16 23:43:00,73.0,69.0,29.80,ENE,63,0.0,1.0,88,0.00,,,0.92,,2013-05-17 04:43:00,
2013-05-16 23:53:00,73.0,69.0,29.80,ENE,61,0.0,2.0,88,0.00,,,0.92,,2013-05-17 04:53:00,